| time (UTC) | temp F | wind direction | speed MPH | gust MPH | rain 1hr in | rain 24hr in | rain mn in | humidity % | barometer mb |
| 20260831121610 | 74 | 0 | 0.0 | 0.0 | 0.00 | 0.00 | 0.00 | 88 | 1020.2 |
| 20260831120107 | 73 | 0 | 0.0 | 0.0 | 0.00 | 0.00 | 0.00 | 89 | 1020.2 |
| 20260831114606 | 73 | 0 | 0.0 | 0.0 | 0.00 | 0.00 | 0.00 | 88 | 1020.0 |
| 20260831113105 | 72 | 0 | 0.0 | 0.0 | 0.00 | 0.00 | 0.00 | 87 | 1019.9 |
| 20260831111616 | 72 | 0 | 0.0 | 0.0 | 0.00 | 0.00 | 0.00 | 89 | 1019.9 |
| 20260831110107 | 73 | 0 | 0.0 | 1.0 | 0.00 | 0.00 | 0.00 | 89 | 1019.9 |
| 20260831104600 | 73 | 0 | 0.0 | 0.0 | 0.00 | 0.36 | 0.00 | 88 | 1019.8 |
| 20260831103106 | 73 | 0 | 0.0 | 0.0 | 0.00 | 0.36 | 0.00 | 88 | 1019.8 |
| 20260831101605 | 73 | 0 | 0.0 | 0.0 | 0.00 | 0.36 | 0.00 | 88 | 1019.8 |
| 20260831100058 | 73 | 0 | 0.0 | 0.0 | 0.00 | 0.36 | 0.00 | 89 | 1019.7 |
| 20260831094602 | 73 | 0 | 0.0 | 0.0 | 0.00 | 0.36 | 0.00 | 90 | 1019.7 |
| 20260831093104 | 73 | 0 | 0.0 | 0.0 | 0.00 | 0.36 | 0.00 | 90 | 1019.6 |
| 20260831091610 | 73 | 0 | 0.0 | 0.0 | 0.00 | 0.36 | 0.00 | 90 | 1019.5 |
| 20260831084558 | 73 | 0 | 0.0 | 0.0 | 0.00 | 0.36 | 0.00 | 91 | 1019.5 |
| 20260831083058 | 74 | 0 | 0.0 | 0.0 | 0.00 | 0.36 | 0.00 | 91 | 1019.3 |
| 20260831081608 | 74 | 0 | 0.0 | 0.0 | 0.00 | 0.36 | 0.00 | 91 | 1019.3 |
| 20260831080112 | 74 | 0 | 0.0 | 0.0 | 0.00 | 0.36 | 0.00 | 91 | 1019.1 |
| 20260831074600 | 74 | 0 | 0.0 | 0.0 | 0.00 | 0.36 | 0.00 | 91 | 1018.9 |
| 20260831073103 | 74 | 0 | 0.0 | 0.0 | 0.00 | 0.36 | 0.00 | 91 | 1019.0 |
| 20260831071553 | 74 | 0 | 0.0 | 0.0 | 0.00 | 0.36 | 0.00 | 91 | 1019.1 |
| 20260831070103 | 75 | 0 | 0.0 | 0.0 | 0.00 | 0.36 | 0.00 | 91 | 1019.0 |
| 20260831064558 | 75 | 0 | 0.0 | 0.0 | 0.00 | 0.36 | 0.00 | 91 | 1019.2 |
| 20260831063055 | 75 | 0 | 0.0 | 0.0 | 0.00 | 0.36 | 0.00 | 91 | 1019.5 |
| 20260831061602 | 75 | 0 | 0.0 | 0.0 | 0.00 | 0.36 | 0.00 | 91 | 1019.7 |
| 20260831060113 | 76 | 0 | 0.0 | 0.0 | 0.00 | 0.36 | 0.00 | 91 | 1019.4 |
| 20260831054601 | 76 | 0 | 0.0 | 0.0 | 0.00 | 0.36 | 0.00 | 91 | 1019.4 |
| 20260831053104 | 76 | 0 | 0.0 | 0.0 | 0.00 | 0.36 | 0.00 | 90 | 1019.5 |
| 20260831051559 | 76 | 0 | 0.0 | 0.0 | 0.00 | 0.36 | 0.00 | 89 | 1019.8 |
| 20260831050106 | 77 | 0 | 0.0 | 0.0 | 0.00 | 0.36 | 0.00 | 89 | 1019.8 |
| 20260831044605 | 77 | 0 | 0.0 | 0.0 | 0.00 | 0.36 | 0.00 | 88 | 1019.8 |
| 20260831043102 | 77 | 0 | 0.0 | 0.0 | 0.00 | 0.36 | 0.00 | 87 | 1019.9 |
| 20260831041616 | 77 | 0 | 0.0 | 0.0 | 0.00 | 0.36 | 0.00 | 87 | 1020.0 |
| 20260831040107 | 77 | 0 | 0.0 | 0.0 | 0.00 | 0.36 | 0.00 | 87 | 1019.9 |
| 20260831034559 | 77 | 0 | 0.0 | 0.0 | 0.00 | 0.36 | 0.36 | 87 | 1019.9 |
| 20260831033056 | 77 | 0 | 0.0 | 0.0 | 0.00 | 0.36 | 0.36 | 86 | 1020.0 |
| 20260831031610 | 78 | 0 | 0.0 | 0.0 | 0.00 | 0.36 | 0.36 | 86 | 1020.0 |
| 20260831030118 | 78 | 0 | 0.0 | 0.0 | 0.00 | 0.36 | 0.36 | 86 | 1020.0 |
| 20260831024600 | 78 | 0 | 0.0 | 0.0 | 0.00 | 0.36 | 0.36 | 85 | 1019.9 |
| 20260831023059 | 78 | 0 | 0.0 | 0.0 | 0.00 | 0.36 | 0.36 | 85 | 1019.9 |
| 20260831021556 | 79 | 0 | 0.0 | 0.0 | 0.00 | 0.36 | 0.36 | 84 | 1019.8 |
| 20260831020104 | 79 | 0 | 0.0 | 0.0 | 0.00 | 0.36 | 0.36 | 83 | 1019.8 |
| 20260831014605 | 80 | 0 | 0.0 | 0.0 | 0.00 | 0.36 | 0.36 | 82 | 1019.9 |
| 20260831013106 | 80 | 0 | 0.0 | 0.0 | 0.00 | 0.36 | 0.36 | 82 | 1019.8 |
| 20260831011609 | 80 | 0 | 0.0 | 0.0 | 0.00 | 0.36 | 0.36 | 82 | 1019.5 |
| 20260831004606 | 81 | 0 | 0.0 | 0.0 | 0.00 | 0.36 | 0.36 | 79 | 1019.5 |
| 20260831003107 | 82 | 0 | 0.0 | 0.0 | 0.00 | 0.36 | 0.36 | 78 | 1019.4 |
| 20260831001604 | 83 | 0 | 0.0 | 0.0 | 0.00 | 0.36 | 0.36 | 76 | 1019.2 |
| 20260831000108 | 83 | 0 | 0.0 | 0.0 | 0.00 | 0.36 | 0.36 | 75 | 1019.0 |
| 20260830234607 | 84 | 0 | 0.0 | 3.0 | 0.00 | 0.36 | 0.36 | 73 | 1018.9 |
| 20260830233103 | 85 | 56 | 2.0 | 7.0 | 0.00 | 0.36 | 0.36 | 72 | 1018.8 |
| 20260830231603 | 85 | 0 | 0.0 | 0.0 | 0.00 | 0.36 | 0.36 | 71 | 1018.9 |
| 20260830230108 | 85 | 0 | 1.0 | 5.0 | 0.00 | 0.36 | 0.36 | 71 | 1018.9 |
| 20260830224608 | 85 | 0 | 0.0 | 6.0 | 0.00 | 0.36 | 0.36 | 69 | 1018.9 |
| 20260830223107 | 85 | 75 | 4.0 | 6.0 | 0.00 | 0.36 | 0.36 | 72 | 1018.9 |
| 20260830221624 | 85 | 63 | 1.0 | 6.0 | 0.00 | 0.36 | 0.36 | 73 | 1018.9 |
| 20260830220100 | 85 | 58 | 5.0 | 6.0 | 0.00 | 0.36 | 0.36 | 70 | 1018.8 |
| 20260830214603 | 85 | 66 | 4.0 | 6.0 | 0.00 | 0.36 | 0.36 | 71 | 1018.8 |
| 20260830213057 | 85 | 62 | 4.0 | 5.0 | 0.00 | 0.36 | 0.36 | 71 | 1018.8 |
| 20260830211602 | 85 | 65 | 3.0 | 6.0 | 0.00 | 0.36 | 0.36 | 69 | 1019.1 |
| 20260830210106 | 85 | 65 | 4.0 | 6.0 | 0.00 | 0.36 | 0.36 | 72 | 1019.2 |
| 20260830204606 | 85 | 53 | 4.0 | 6.0 | 0.00 | 0.36 | 0.36 | 70 | 1019.4 |
| 20260830203059 | 84 | 60 | 5.0 | 7.0 | 0.00 | 0.36 | 0.36 | 73 | 1019.5 |
| 20260830201632 | 84 | 56 | 5.0 | 7.0 | 0.00 | 0.36 | 0.36 | 71 | 1019.5 |
| 20260830200113 | 84 | 58 | 3.0 | 5.0 | 0.00 | 0.36 | 0.36 | 70 | 1019.6 |
| 20260830194613 | 84 | 41 | 4.0 | 6.0 | 0.00 | 0.36 | 0.36 | 73 | 1019.8 |
| 20260830193109 | 84 | 61 | 4.0 | 7.0 | 0.00 | 0.36 | 0.36 | 73 | 1020.0 |
| 20260830191603 | 83 | 64 | 4.0 | 6.0 | 0.00 | 0.36 | 0.36 | 72 | 1020.1 |
| 20260830184602 | 83 | 64 | 5.0 | 7.0 | 0.00 | 0.36 | 0.36 | 74 | 1020.1 |
| 20260830183105 | 82 | 57 | 5.0 | 7.0 | 0.00 | 0.36 | 0.36 | 73 | 1020.4 |
| 20260830181604 | 82 | 55 | 5.0 | 7.0 | 0.00 | 0.36 | 0.36 | 77 | 1020.6 |
| 20260830180105 | 82 | 66 | 6.0 | 8.0 | 0.00 | 0.36 | 0.36 | 79 | 1020.8 |
| 20260830174601 | 82 | 58 | 6.0 | 7.0 | 0.00 | 0.36 | 0.36 | 79 | 1021.0 |
| 20260830173118 | 82 | 63 | 5.0 | 7.0 | 0.00 | 0.36 | 0.36 | 78 | 1021.4 |
| 20260830171602 | 82 | 75 | 1.0 | 6.0 | 0.00 | 0.36 | 0.36 | 78 | 1021.5 |
| 20260830170107 | 82 | 57 | 2.0 | 7.0 | 0.00 | 0.36 | 0.36 | 77 | 1021.7 |
| 20260830164612 | 82 | 50 | 1.0 | 5.0 | 0.00 | 0.36 | 0.36 | 79 | 1021.9 |
| 20260830163114 | 81 | 94 | 0.0 | 4.0 | 0.00 | 0.36 | 0.36 | 80 | 1022.3 |
| 20260830161611 | 80 | 46 | 4.0 | 6.0 | 0.00 | 0.36 | 0.36 | 83 | 1022.3 |
| 20260830160106 | 79 | 66 | 3.0 | 7.0 | 0.00 | 0.36 | 0.36 | 82 | 1022.2 |
| 20260830154611 | 79 | 0 | 0.0 | 5.0 | 0.00 | 0.36 | 0.36 | 85 | 1022.5 |
| 20260830153110 | 79 | 78 | 5.0 | 8.0 | 0.00 | 0.36 | 0.36 | 85 | 1022.5 |
| 20260830151602 | 78 | 71 | 3.0 | 7.0 | 0.00 | 0.36 | 0.36 | 87 | 1022.4 |
| 20260830150105 | 78 | 70 | 0.0 | 7.0 | 0.00 | 0.36 | 0.36 | 89 | 1022.5 |
| 20260830144611 | 77 | 65 | 4.0 | 7.0 | 0.00 | 0.36 | 0.36 | 89 | 1022.4 |
| 20260830143100 | 77 | 59 | 5.0 | 8.0 | 0.00 | 0.36 | 0.36 | 89 | 1022.3 |
| 20260830141601 | 76 | 70 | 5.0 | 7.0 | 0.00 | 0.36 | 0.36 | 91 | 1022.3 |
| 20260830140107 | 77 | 59 | 5.0 | 7.0 | 0.00 | 0.36 | 0.36 | 90 | 1022.3 |
| 20260830134602 | 77 | 63 | 2.0 | 8.0 | 0.00 | 0.36 | 0.36 | 91 | 1022.3 |
| 20260830133102 | 77 | 60 | 6.0 | 10.0 | 0.00 | 0.36 | 0.36 | 91 | 1022.3 |
| 20260830131603 | 77 | 57 | 5.0 | 8.0 | 0.00 | 0.36 | 0.36 | 91 | 1022.2 |
| 20260830130106 | 77 | 61 | 5.0 | 8.0 | 0.00 | 0.36 | 0.36 | 91 | 1022.0 |
| 20260830124600 | 76 | 179 | 0.0 | 2.0 | 0.00 | 0.37 | 0.36 | 91 | 1022.0 |
| 20260830123103 | 77 | 0 | 0.0 | 0.0 | 0.00 | 0.37 | 0.36 | 91 | 1022.0 |